BREEZE-M DEB, 34260

Orbit data source: Space-Track

BREEZE-M DEB, 34260 is space debris in HEO originally from a launch on Tue, 28 Feb 2006 UTC launched from the Tyuratam Missile And Space Complex (TTMTR). Debris objects in space refer to the collection of defunct objects orbiting the Earth. Examples of debris include non-operational satellites, rocket bodies, and fragments generated from explosions, collisions, or faulty payload assembly.

Loading next visibility...
Identifier
34260, 2006-006CB
Orbit
HEO
Country
Flag of CISCIS
Related business
Manufacturer
Khrunichev
Mission
Spacecraft
Bus & Motor
Unknown
Mass
Unknown
Launch date (UTC)
2006-02-28 (20 years ago)
Launch vehicle
Unknown
Launch site
Tyuratam Missile And Space Complex (TTMTR)
Object type
Payload
Rocket body
Debris
Shape & HBR
Unknown shape, 0.1 m
Radar Cross Section
Medium (>0.1 m² and <1 m²)

Expand to show TLE details & history
Last TLE update: 2 months ago

TLE from 2 months ago
0 BREEZE-M DEB
1 34260U 06006CB  26097.90168928  .00003015  00000-0  11747-1 0  9994
2 34260  52.0458 263.5203 4825882 226.1486  82.2610  5.50794621 96786
Epoch: 2026-04-07T21:38Z
TLE epoch observation values (Epoch: 2026-04-07T21:38:25.953Z)
Latitude
-0.00002°
Longitude
102.73125°
Altitude
9,235.834 km
Speed
4.651 km/s
True Right ascension
17h 34m 02s
True Declination
0° 00' 00"
Sunlit
Object was in daylight at epoch
Visualization orbit readout
Latitude
Unknown
Longitude
Unknown
Altitude
Unknown
Speed
Unknown
Apparent Right ascension
Unknown
Apparent Declination
Unknown
Sunlit
N/A
Visualization observer readout
Local Sidereal Time
18:34:15
Azimuth
Unknown
Elevation
Unknown
Doppler factor
Unknown
Orbital elements
Apogee altitude
13,702.307 km
Perigee altitude
629.782 km
Semi-major axis
13,544.182 km
Eccentricity
0.48259
Inclination
52.0458°
RAAN
263.5203°
Arg. of periapsis
226.1486°
True anomaly
133.90994°
Mean anomaly
82.261°
Eccentric anomaly
108.48474°
Mean motion
1.37694 °/min
Orbital period
261.45 mins
BSTAR
0.011747
Loading maneuver chart data...
Computing Atmospheric mass density...
Loading historical data...
Loading historical data...
Loading historical data...
Loading historical data...
Loading historical data...
Loading historical data...
Loading historical data...

Documentation

Showing up to 5 results
|